EW5212 Weather Reports


time (UTC)temp
C
wind
direction
speed
KPH
gust
KPH
rain 1hr
cm
rain 24hr
cm
rain mn
cm
humidity
%
barometer
mb
20260904121516 24 248 1.6 6.4 0.00 0.00 0.00 97 1015.2
20260904120537 23 0.0 1.6 0.00 0.00 0.00 100 1015.2
20260904115517 22 0.0 0.0 0.00 0.00 0.00 100 1015.1
20260904114517 22 0.0 0.0 0.00 0.00 0.00 99 1014.9
20260904113517 22 0.0 0.0 0.00 0.00 0.00 99 1014.9
20260904112517 21 0.0 0.0 0.00 0.00 0.00 99 1015.0
20260904111517 21 0.0 0.0 0.00 0.00 0.00 99 1015.1
20260904110516 21 0.0 0.0 0.00 0.00 0.00 99 1015.0
20260904105517 21 0.0 0.0 0.00 0.00 0.00 99 1014.9
20260904104537 22 0.0 0.0 0.00 0.00 0.00 99 1015.0
20260904103557 22 0.0 0.0 0.00 0.00 0.00 98 1014.8
20260904102517 22 0.0 0.0 0.00 0.00 0.00 98 1014.9
20260904101517 22 0.0 0.0 0.00 0.00 0.00 98 1014.9
20260904100517 22 0.0 0.0 0.00 0.00 0.00 98 1014.8
20260904095517 22 0.0 0.0 0.00 0.00 0.00 98 1015.0
20260904094517 22 0.0 0.0 0.00 0.00 0.00 98 1015.0
20260904093517 22 0.0 0.0 0.00 0.00 0.00 98 1015.1
20260904092516 22 0.0 0.0 0.00 0.00 0.00 98 1015.2
20260904091517 22 0.0 0.0 0.00 0.00 0.00 97 1015.1
20260904090516 22 0.0 0.0 0.00 0.00 0.00 97 1015.2
20260904085517 23 0.0 0.0 0.00 0.00 0.00 97 1015.2
20260904084518 23 0.0 0.0 0.00 0.00 0.00 97 1015.3
20260904083517 23 0.0 0.0 0.00 0.00 0.00 96 1015.2
20260904082517 23 0.0 0.0 0.00 0.00 0.00 96 1015.0
20260904081516 23 0.0 0.0 0.00 0.00 0.00 96 1014.9
20260904080517 23 0.0 0.0 0.00 0.00 0.00 96 1014.9
20260904075517 23 0.0 0.0 0.00 0.00 0.00 95 1014.9
20260904074516 24 0.0 1.6 0.00 0.00 0.00 95 1014.7
20260904073517 23 0.0 0.0 0.00 0.00 0.00 94 1014.8
20260904072517 24 0.0 0.0 0.00 0.00 0.00 94 1014.8
20260904071517 24 0.0 0.0 0.00 0.00 0.00 93 1014.6
20260904070517 25 0.0 0.0 0.00 0.00 0.00 92 1014.6
20260904065536 25 0.0 0.0 0.00 0.00 0.00 91 1014.5
20260904064516 25 0.0 0.0 0.00 0.00 0.00 90 1014.8
20260904063536 25 0.0 0.0 0.00 0.00 0.00 89 1014.8
20260904062521 26 0.0 0.0 0.00 0.00 0.00 88 1014.9
20260904061517 26 0.0 1.6 0.00 0.00 0.00 87 1014.9
20260904060517 26 0.0 3.2 0.00 0.00 0.00 90 1015.5
20260904055516 26 68 1.6 3.2 0.00 0.00 0.00 93 1015.6
20260904054516 26 0.0 3.2 0.00 0.00 0.00 94 1015.6
20260904053516 26 0.0 0.0 0.00 0.00 0.00 93 1015.0
20260904052516 26 0.0 3.2 0.00 0.00 0.00 91 1014.8
20260904051517 26 0.0 1.6 0.00 0.00 0.00 91 1014.8
20260904050517 25 0.0 1.6 0.00 0.00 0.00 95 1015.0
20260904045516 25 0.0 0.0 0.00 0.00 0.00 96 1015.2
20260904044517 25 0.0 0.0 0.00 0.00 0.00 96 1015.1
20260904043516 25 0.0 0.0 0.00 0.00 0.00 96 1015.1
20260904042516 25 0.0 0.0 0.00 0.00 0.00 97 1015.2
20260904041517 25 0.0 0.0 0.00 0.00 0.00 97 1015.1
20260904040516 25 0.0 0.0 0.00 0.00 0.00 98 1015.2
20260904035516 25 0.0 0.0 0.00 0.00 0.00 98 1015.2
20260904034516 25 0.0 0.0 0.00 0.00 0.00 99 1015.3
20260904033516 25 0.0 0.0 0.00 0.00 0.00 99 1015.3
20260904032516 25 0.0 0.0 0.00 0.00 0.00 99 1015.5
20260904031517 25 0.0 0.0 0.00 0.00 0.00 99 1015.4
20260904030516 25 0.0 0.0 0.00 0.00 0.00 98 1015.3
20260904025536 25 0.0 0.0 0.00 0.00 0.00 98 1015.3
20260904024537 25 0.0 0.0 0.00 0.00 0.00 98 1015.3
20260904023516 25 0.0 0.0 0.00 0.00 0.00 98 1015.3
20260904022516 26 0.0 0.0 0.00 0.00 0.00 98 1015.3
20260904021516 26 0.0 0.0 0.00 0.00 0.00 98 1015.1
20260904020516 26 0.0 0.0 0.00 0.00 0.00 98 1015.2
20260904015517 26 0.0 0.0 0.00 0.00 0.00 98 1015.3
20260904014516 26 0.0 0.0 0.00 0.00 0.00 97 1015.5
20260904013516 26 0.0 0.0 0.00 0.00 0.00 97 1015.7
20260904012516 26 0.0 0.0 0.00 0.00 0.00 97 1015.6
20260904011516 26 0.0 0.0 0.00 0.00 0.00 97 1015.8
20260904010516 26 0.0 0.0 0.00 0.00 0.00 96 1015.7
20260904005536 27 0.0 0.0 0.00 0.00 0.00 96 1015.9
20260904004516 27 0.0 0.0 0.00 0.00 0.00 96 1015.9
20260904003516 27 0.0 0.0 0.00 0.00 0.00 96 1015.9
20260904002516 27 0.0 0.0 0.00 0.00 0.00 95 1015.8
20260904001516 27 0.0 0.0 0.00 0.00 0.00 95 1015.6
20260904000516 27 0.0 0.0 0.00 0.00 0.00 94 1015.5
20260903235516 28 0.0 0.0 0.00 0.00 0.00 94 1015.2
20260903234516 28 0.0 0.0 0.00 0.00 0.00 93 1015.0
20260903233516 28 0.0 0.0 0.00 0.00 0.00 93 1015.0
20260903232536 28 0.0 0.0 0.00 0.00 0.00 92 1015.1
20260903231516 29 0.0 0.0 0.00 0.00 0.00 91 1015.0
20260903230515 29 0.0 0.0 0.00 0.00 0.00 91 1015.1
20260903225516 30 0.0 0.0 0.00 0.00 0.00 89 1014.9
20260903224515 30 0.0 0.0 0.00 0.00 0.00 88 1014.9
20260903223535 30 0.0 0.0 0.00 0.00 0.00 88 1014.8
20260903222516 30 0.0 0.0 0.00 0.00 0.00 87 1014.9
20260903221516 30 0.0 0.0 0.00 0.00 0.00 84 1014.8
20260903220556 31 0.0 0.0 0.00 0.00 0.00 82 1015.0
20260903215515 31 0.0 0.0 0.00 0.00 0.00 81 1015.1
20260903214516 31 0.0 0.0 0.00 0.00 0.00 80 1015.0
20260903213516 32 0.0 1.6 0.00 0.00 0.00 77 1015.1
20260903212536 33 0.0 1.6 0.00 0.00 0.00 75 1015.0
20260903211535 34 0.0 0.0 0.00 0.00 0.00 71 1014.9
20260903210515 34 0.0 1.6 0.00 0.00 0.00 69 1015.1
20260903205516 34 0.0 1.6 0.00 0.00 0.00 73 1015.2
20260903204515 34 0.0 1.6 0.00 0.00 0.00 71 1015.2
20260903203516 34 0.0 1.6 0.00 0.00 0.00 72 1015.4
20260903202516 35 0.0 1.6 0.00 0.00 0.00 72 1015.5
20260903201535 35 0.0 0.0 0.00 0.00 0.00 72 1015.6
20260903200516 35 0.0 0.0 0.00 0.00 0.00 66 1015.7
20260903195516 35 0.0 1.6 0.00 0.00 0.00 69 1015.9
20260903194516 36 0.0 1.6 0.00 0.00 0.00 65 1015.9
20260903193516 36 270 1.6 3.2 0.00 0.00 0.00 67 1016.1
20260903192515 36 0.0 1.6 0.00 0.00 0.00 69 1016.1
20260903191515 36 0.0 1.6 0.00 0.00 0.00 69 1016.3
20260903190536 35 0.0 1.6 0.00 0.00 0.00 69 1016.4
20260903185515 35 270 1.6 3.2 0.00 0.00 0.00 70 1016.7
20260903184515 35 0.0 1.6 0.00 0.00 0.00 71 1016.8
20260903183515 35 45 1.6 4.8 0.00 0.00 0.00 69 1016.9
20260903182535 35 270 1.6 4.8 0.00 0.00 0.00 68 1017.0
20260903181516 35 68 1.6 4.8 0.00 0.00 0.00 68 1017.1
20260903180515 34 45 1.6 3.2 0.00 0.00 0.00 71 1017.3
20260903175515 34 0.0 1.6 0.00 0.00 0.00 72 1017.5
20260903174515 34 0.0 4.8 0.00 0.00 0.00 73 1017.6
20260903173515 34 0 1.6 3.2 0.00 0.00 0.00 73 1017.5
20260903172515 34 0.0 1.6 0.00 0.00 0.00 74 1017.6
20260903171515 33 45 1.6 1.6 0.00 0.00 0.00 74 1017.8
20260903170515 33 0.0 1.6 0.00 0.00 0.00 73 1017.8
20260903165515 33 135 1.6 4.8 0.00 0.00 0.00 74 1017.8
20260903164515 33 0.0 1.6 0.00 0.00 0.00 75 1018.0
20260903163515 33 45 1.6 1.6 0.00 0.00 0.00 76 1018.0
20260903162536 32 0.0 1.6 0.00 0.00 0.00 76 1018.2
20260903161515 32 0.0 1.6 0.00 0.00 0.00 76 1018.2
20260903160515 32 0.0 1.6 0.00 0.00 0.00 78 1018.2
20260903155515 32 0.0 1.6 0.00 0.00 0.00 79 1018.5
20260903154515 31 68 1.6 3.2 0.00 0.00 0.00 79 1018.4
20260903153515 31 68 1.6 6.4 0.00 0.00 0.00 80 1018.5
20260903152515 31 45 1.6 3.2 0.00 0.00 0.00 81 1018.6
20260903151555 31 0.0 3.2 0.00 0.00 0.00 81 1018.5
20260903150535 30 45 1.6 3.2 0.00 0.00 0.00 81 1018.4
20260903145515 30 0.0 1.6 0.00 0.00 0.00 82 1018.3
20260903144515 30 0.0 1.6 0.00 0.00 0.00 82 1018.4
20260903143515 30 0.0 3.2 0.00 0.00 0.00 83 1018.2
20260903142516 30 45 1.6 3.2 0.00 0.00 0.00 82 1018.2
20260903141515 30 0.0 3.2 0.00 0.00 0.00 82 1018.1
20260903140515 30 45 1.6 1.6 0.00 0.00 0.00 80 1018.1
20260903135515 30 0.0 1.6 0.00 0.00 0.00 81 1017.7
20260903134515 29 0.0 1.6 0.00 0.00 0.00 82 1017.7
20260903133515 28 270 1.6 4.8 0.00 0.00 0.00 82 1017.8
20260903132515 28 0.0 3.2 0.00 0.00 0.00 85 1017.9
20260903131516 26 0.0 1.6 0.00 0.00 0.00 90 1018.1
20260903130515 25 0.0 1.6 0.00 0.00 0.00 99 1018.1
20260903125516 25 0.0 0.0 0.00 0.00 0.00 100 1018.1
20260903124515 23 0.0 3.2 0.00 0.00 0.00 100 1018.4
20260903123515 23 0.0 0.0 0.00 0.00 0.00 100 1018.4
20260903122517 22 0.0 0.0 0.00 0.00 0.00 100 1018.3